Regional Weather Roundup
Issued by NWS Sioux Falls, SD

Home | Current Version | Previous Version | Text Only | Print | Product List | Glossary On
Versions: 1 2 3 4 5 6 7 8 9 10 11 12 13 14 15 16 17 18 19 20 21 22 23 24 25 26 27 28 29 30 31 32 33 34 35 36 37 38 39 40 41 42 43 44 45 46 47 48 49 50
000
ASUS43 KFSD 251510
RWRFSD

WEATHER ROUNDUP FOR SE SOUTH DAKOTA/SW MINNESOTA/NW IOWA
NATIONAL WEATHER SERVICE SIOUX FALLS SD
1000 AM CDT THU MAY 25 2017

NOTE: "FAIR" INDICATES FEW OR NO CLOUDS BELOW 12,000 FEET WITH NO
SIGNIFICANT WEATHER AND OR OBSTRUCTIONS TO VISIBILITY.


SDZ038>040-050-052>070-251600-
SOUTHEAST SOUTH DAKOTA

CITY           SKY/WX    TMP DP  RH WIND       PRES   REMARKS
BROOKINGS      SUNNY     59  48  67 S21G30    29.55F
CHAMBERLAIN    CLOUDY    67  52  58 S15       29.43S
HURON          SUNNY     62  46  55 S28G37    29.44F
MADISON        FAIR      59  50  72 S26G43    29.54F
MITCHELL       SUNNY     64  47  53 S25G36    29.48F
SIOUX FALLS    MOSUNNY   62  49  62 S22G31    29.57F
WINNER         FAIR      66  51  58 SW10      29.45R
YANKTON        SUNNY     63  48  58 S18       29.55F
$$

MNZ071-072-080-081-089-090-097-098-251600-
SOUTHWEST MINNESOTA

CITY           SKY/WX    TMP DP  RH WIND       PRES   REMARKS
FAIRMONT       MOSUNNY   60  50  69 S17       29.68F
JACKSON        SUNNY     59  48  67 S17       29.67F
LUVERNE        MOSUNNY   59  46  63 S17G25    29.61F
MARSHALL       NOT AVBL
MONTEVIDEO     CLOUDY    61  52  72 S13G25    29.60F
PIPESTONE      MOSUNNY   59  46  63 S23G30    29.58F
REDWOOD FALLS  SUNNY     63  49  60 S22       29.63F
TRACY          SUNNY     60  51  71 S17G28    29.61F
WINDOM         SUNNY     61  46  59 S16G25    29.65F
WORTHINGTON    LGT RAIN  58  48  69 S18G25    29.64F
$$

IAZ001>003-012>014-020>022-031-032-NEZ013-014-SDZ071-251600-
NORTHWEST IOWA

CITY           SKY/WX    TMP DP  RH WIND       PRES   REMARKS
CHEROKEE       SUNNY     61  50  67 S15G23    29.65F
DENISON        SUNNY     63  50  63 S12G21    29.68F
ESTHERVILLE    SUNNY     59  52  77 S18       29.68F
LE MARS        CLOUDY    63  48  59 S16G24    29.62F
ORANGE CITY    PTSUNNY   61  50  67 S18G24    29.63F
SHELDON        SUNNY     61  48  63 S22G31    29.62F
SIOUX CITY     PTSUNNY   62  52  69 S20G25    29.62F
SPENCER        MOSUNNY   62  50  64 S17       29.67F
STORM LAKE     SUNNY     63  48  59 S20       29.67F
$$

ABBREVIATIONS USED IN REMARKS
   TC - TEMPERATURE IN CELSIUS
  WCI - WIND CHILL INDEX
   HX - HEAT INDEX
  VSB - VISIBILITY




USA.gov is the U.S. government's official web portal to all federal, state and local government web resources and services.